When you browse on this site, cookies collect data to enhance your experience and personalize the content and advertising you see.
Visit our Privacy Policy to learn more. By continuing to use the site, you agree to this use of cookies and data.
  • en France
  • Liste des pays
  • À 7 jours
  • Température de l'eau
  • Carte satellitaire
  • Carte météo
  • Widgets météo
  • user-avatar
    Se connecter

    Météo par heure à Albany

    Ce jour, 24 Mars, Dimanche

    Heure Température Précipitation Vent Pression Humidité
    00:00 +14°C° 0 mm 6 m/s 759 mmHg 79%
    01:00 +14°C° 0 mm 6 m/s 759 mmHg 80%
    02:00 +15°C° 0 mm 6 m/s 759 mmHg 80%
    03:00 +15°C° 0.1 mm 6 m/s 759 mmHg 80%
    04:00 +15°C° 0.1 mm 6 m/s 759 mmHg 80%
    05:00 +15°C° 0.1 mm 6 m/s 759 mmHg 79%
    06:00 +15°C° 0.1 mm 6 m/s 759 mmHg 77%
    07:00 +15°C° 0.1 mm 5 m/s 760 mmHg 75%
    08:00 +15°C° 0 mm 5 m/s 760 mmHg 71%
    09:00 +15°C° 0 mm 5 m/s 760 mmHg 67%
    10:00 +16°C° 0 mm 5 m/s 761 mmHg 64%
    11:00 +16°C° 0 mm 5 m/s 761 mmHg 60%
    12:00 +16°C° 0 mm 5 m/s 761 mmHg 60%
    13:00 +16°C° 0 mm 5 m/s 761 mmHg 60%
    14:00 +17°C° 0 mm 5 m/s 761 mmHg 60%
    15:00 +16°C° 0 mm 5 m/s 761 mmHg 61%
    16:00 +16°C° 0 mm 5 m/s 761 mmHg 63%
    17:00 +15°C° 0 mm 4 m/s 762 mmHg 64%
    18:00 +15°C° 0 mm 4 m/s 762 mmHg 66%
    19:00 +14°C° 0 mm 4 m/s 762 mmHg 68%
    20:00 +14°C° 0 mm 3 m/s 763 mmHg 70%
    21:00 +13°C° 0 mm 3 m/s 763 mmHg 70%
    22:00 +13°C° 0 mm 3 m/s 763 mmHg 71%
    23:00 +13°C° 0 mm 3 m/s 763 mmHg 72%

    Demain, 25 Mars, Lundi

    Heure Température Précipitation Vent Pression Humidité
    00:00 +13°C° 0 mm 3 m/s 764 mmHg 73%
    01:00 +14°C° 0 mm 2 m/s 764 mmHg 73%
    02:00 +13°C° 0 mm 2 m/s 764 mmHg 74%
    03:00 +13°C° 0 mm 2 m/s 764 mmHg 76%
    04:00 +13°C° 0 mm 2 m/s 764 mmHg 77%
    05:00 +12°C° 0 mm 3 m/s 764 mmHg 78%
    06:00 +13°C° 0 mm 3 m/s 764 mmHg 75%
    07:00 +14°C° 0 mm 3 m/s 764 mmHg 71%
    08:00 +14°C° 0 mm 4 m/s 765 mmHg 67%
    09:00 +17°C° 0 mm 4 m/s 765 mmHg 63%
    10:00 +18°C° 0 mm 4 m/s 765 mmHg 59%
    11:00 +19°C° 0 mm 4 m/s 765 mmHg 55%
    12:00 +19°C° 0 mm 4 m/s 764 mmHg 54%
    13:00 +20°C° 0 mm 5 m/s 764 mmHg 53%
    14:00 +21°C° 0 mm 5 m/s 763 mmHg 51%
    15:00 +20°C° 0 mm 5 m/s 763 mmHg 55%
    16:00 +19°C° 0 mm 5 m/s 763 mmHg 58%
    17:00 +19°C° 0 mm 5 m/s 763 mmHg 61%
    18:00 +17°C° 0 mm 5 m/s 764 mmHg 66%
    19:00 +16°C° 0 mm 5 m/s 764 mmHg 71%
    20:00 +15°C° 0 mm 5 m/s 764 mmHg 76%
    21:00 +14°C° 0 mm 5 m/s 764 mmHg 78%
    22:00 +14°C° 0 mm 5 m/s 764 mmHg 79%
    23:00 +14°C° 0 mm 5 m/s 764 mmHg 81%

    Après-demain, 26 Mars, Mardi

    Heure Température Précipitation Vent Pression Humidité
    00:00 +14°C° 0 mm 5 m/s 764 mmHg 83%
    01:00 +14°C° 0 mm 5 m/s 764 mmHg 84%
    02:00 +14°C° 0 mm 5 m/s 763 mmHg 86%
    03:00 +14°C° 0 mm 5 m/s 763 mmHg 86%
    04:00 +14°C° 0 mm 5 m/s 763 mmHg 87%
    05:00 +14°C° 0 mm 5 m/s 763 mmHg 87%
    06:00 +14°C° 0 mm 5 m/s 763 mmHg 81%
    07:00 +15°C° 0 mm 5 m/s 763 mmHg 75%
    08:00 +16°C° 0 mm 5 m/s 763 mmHg 70%
    09:00 +19°C° 0 mm 5 m/s 763 mmHg 61%
    10:00 +22°C° 0 mm 4 m/s 763 mmHg 53%
    11:00 +25°C° 0 mm 4 m/s 763 mmHg 44%
    12:00 +26°C° 0 mm 4 m/s 762 mmHg 41%
    13:00 +27°C° 0 mm 4 m/s 761 mmHg 38%
    14:00 +28°C° 0 mm 4 m/s 761 mmHg 35%
    15:00 +28°C° 0 mm 4 m/s 760 mmHg 38%
    16:00 +27°C° 0 mm 4 m/s 760 mmHg 41%
    17:00 +26°C° 0 mm 4 m/s 760 mmHg 43%
    18:00 +23°C° 0 mm 5 m/s 760 mmHg 50%
    19:00 +22°C° 0 mm 5 m/s 760 mmHg 57%
    20:00 +20°C° 0 mm 5 m/s 760 mmHg 64%
    21:00 +19°C° 0 mm 5 m/s 760 mmHg 65%
    22:00 +19°C° 0 mm 4 m/s 760 mmHg 67%
    23:00 +19°C° 0 mm 4 m/s 760 mmHg 68%

    27 Mars, Mercredi

    Heure Température Précipitation Vent Pression Humidité
    00:00 +19°C° 0 mm 3 m/s 760 mmHg 67%
    01:00 +18°C° 0 mm 3 m/s 759 mmHg 65%
    02:00 +18°C° 0 mm 2 m/s 759 mmHg 64%
    03:00 +18°C° 0 mm 2 m/s 758 mmHg 60%
    04:00 +18°C° 0 mm 2 m/s 758 mmHg 56%
    05:00 +18°C° 0 mm 3 m/s 758 mmHg 52%
    06:00 +19°C° 0 mm 3 m/s 759 mmHg 52%
    07:00 +20°C° 0 mm 3 m/s 759 mmHg 52%
    08:00 +21°C° 0 mm 3 m/s 760 mmHg 53%
    09:00 +21°C° 0 mm 4 m/s 760 mmHg 56%
    10:00 +22°C° 0 mm 4 m/s 760 mmHg 60%
    11:00 +23°C° 0 mm 5 m/s 760 mmHg 64%
    12:00 +23°C° 0 mm 5 m/s 760 mmHg 66%
    13:00 +22°C° 0 mm 5 m/s 759 mmHg 68%
    14:00 +22°C° 0 mm 6 m/s 759 mmHg 70%
    15:00 +20°C° 0 mm 5 m/s 760 mmHg 71%
    16:00 +19°C° 0 mm 5 m/s 760 mmHg 72%
    17:00 +18°C° 0 mm 4 m/s 760 mmHg 72%
    18:00 +18°C° 0 mm 4 m/s 761 mmHg 75%
    19:00 +17°C° 0 mm 4 m/s 761 mmHg 78%
    20:00 +15°C° 0 mm 4 m/s 762 mmHg 81%
    21:00 +15°C° 0 mm 4 m/s 762 mmHg 80%
    22:00 +15°C° 0 mm 4 m/s 762 mmHg 80%
    23:00 +16°C° 0 mm 3 m/s 763 mmHg 80%

    28 Mars, Jeudi

    Heure Température Précipitation Vent Pression Humidité
    00:00 +16°C° 0.1 mm 3 m/s 763 mmHg 81%
    01:00 +16°C° 0.1 mm 3 m/s 762 mmHg 82%
    02:00 +16°C° 0.1 mm 3 m/s 762 mmHg 83%
    03:00 +16°C° 0.1 mm 3 m/s 762 mmHg 83%
    04:00 +15°C° 0.1 mm 4 m/s 763 mmHg 82%
    05:00 +15°C° 0.1 mm 4 m/s 763 mmHg 82%
    06:00 +15°C° 0 mm 4 m/s 763 mmHg 79%
    07:00 +15°C° 0 mm 4 m/s 764 mmHg 75%
    08:00 +15°C° 0 mm 4 m/s 764 mmHg 72%
    09:00 +15°C° 0 mm 4 m/s 764 mmHg 70%
    10:00 +15°C° 0 mm 4 m/s 765 mmHg 68%
    11:00 +17°C° 0 mm 4 m/s 765 mmHg 66%
    12:00 +17°C° 0 mm 4 m/s 764 mmHg 66%
    13:00 +17°C° 0 mm 4 m/s 764 mmHg 65%
    14:00 +17°C° 0 mm 4 m/s 764 mmHg 65%
    15:00 +15°C° 0 mm 4 m/s 764 mmHg 65%
    16:00 +15°C° 0 mm 4 m/s 765 mmHg 66%
    17:00 +15°C° 0 mm 4 m/s 765 mmHg 67%
    18:00 +14°C° 0 mm 4 m/s 765 mmHg 69%
    19:00 +14°C° 0 mm 4 m/s 766 mmHg 71%
    20:00 +13°C° 0 mm 4 m/s 766 mmHg 74%
    21:00 +13°C° 0 mm 4 m/s 766 mmHg 74%
    22:00 +13°C° 0 mm 4 m/s 766 mmHg 75%
    23:00 +13°C° 0 mm 4 m/s 766 mmHg 76%

    29 Mars, Vendredi

    Heure Température Précipitation Vent Pression Humidité
    00:00 +13°C° 0 mm 4 m/s 766 mmHg 76%
    01:00 +13°C° 0 mm 4 m/s 766 mmHg 77%
    02:00 +13°C° 0 mm 4 m/s 766 mmHg 77%
    03:00 +12°C° 0 mm 4 m/s 766 mmHg 78%
    04:00 +12°C° 0 mm 4 m/s 766 mmHg 79%
    05:00 +12°C° 0 mm 3 m/s 766 mmHg 80%
    06:00 +13°C° 0 mm 4 m/s 767 mmHg 77%
    07:00 +13°C° 0 mm 4 m/s 767 mmHg 75%
    08:00 +14°C° 0 mm 4 m/s 767 mmHg 72%
    09:00 +15°C° 0 mm 5 m/s 767 mmHg 69%
    10:00 +15°C° 0 mm 5 m/s 767 mmHg 67%
    11:00 +16°C° 0 mm 5 m/s 767 mmHg 64%
    12:00 +17°C° 0 mm 5 m/s 766 mmHg 62%
    13:00 +17°C° 0 mm 5 m/s 766 mmHg 60%
    14:00 +19°C° 0 mm 5 m/s 765 mmHg 58%
    15:00 +19°C° 0 mm 6 m/s 765 mmHg 60%
    16:00 +17°C° 0 mm 6 m/s 765 mmHg 62%
    17:00 +17°C° 0 mm 6 m/s 765 mmHg 64%
    18:00 +16°C° 0 mm 6 m/s 766 mmHg 68%
    19:00 +15°C° 0 mm 5 m/s 766 mmHg 72%
    20:00 +14°C° 0 mm 5 m/s 766 mmHg 76%
    21:00 +14°C° 0 mm 5 m/s 766 mmHg 77%
    22:00 +13°C° 0 mm 5 m/s 766 mmHg 78%
    23:00 +13°C° 0 mm 5 m/s 766 mmHg 79%
    Voir plus